Tallevast, FL

5:28 AM EST on January 22, 2017 (GMT -0500)
Sarasota-bradenton

Weather History for KSRQ - March, 2012

Change the Weather History Date:

Sunday, March 4, 2012

  Actual Average Record
Temperature  
Mean Temperature 63 °F 65 °F  
Max Temperature 76 °F 75 °F 87 °F (1973)
Min Temperature 50 °F 55 °F 30 °F (1943)
Degree Days  
Heating Degree Days 2 3  
Month to date heating degree days 2 12  
Since 1 July heating degree days 200 430  
Cooling Degree Days 0 3  
Month to date cooling degree days 27 12  
Year to date cooling degree days 206 116  
Growing Degree Days 15 (Base 50)    
Moisture  
Dew Point 51 °F    
Average Humidity 63    
Maximum Humidity 87    
Minimum Humidity 28    
Precipitation  
Precipitation T in 0.13 in 1.77 in (1957)
Month to date precipitation T 0.50  
Year to date precipitation 1.73 5.69  
Sea Level Pressure  
Sea Level Pressure 29.97 in    
Wind  
Wind Speed 16 mph (NW)    
Max Wind Speed 31 mph    
Max Gust Speed 40 mph    
Visibility 10 miles    
Events Rain    
T = Trace of Precipitation, MM = Missing Value Source: NWS Daily Summary

Daily Weather History Graph

Daily Weather History Graph

Search for Another Location

Airport or City:

Trip Planner

Search our weather history database for the weather conditions in past years. The results will help you decide how hot, cold, wet, or windy it might be!

Date:

Astronomy

Mar. 04, 2012 Rise Set
Actual Time 6:50 AM EST 6:33 PM EST
Civil Twilight 6:27 AM EST 6:56 PM EST
Nautical Twilight 6:00 AM EST 7:23 PM EST
Astronomical Twilight 5:33 AM EST 7:50 PM EST
Moon 3:00 PM EST (3/4) 3:52 AM EST (3/4)
Length of Visible Light 12h 28m
Length of Day
11h 42m
Waxing Gibbous, 83% of the Moon is Illuminated
Mar 4
Waxing Gibbous
Mar 8
Full
Mar 14
Last Quarter
Mar 22
New
Mar 30
First Quarter

Hourly Weather History & Observations

Time (EST) Temp. Dew Point Humidity Pressure Visibility Wind Dir Wind Speed Gust Speed Precip Events Conditions
12:53 AM 75.0 °F 71.1 °F 87% 29.82 in 9.0 mi South 16.1 mph 24.2 mph N/A   Scattered Clouds
1:24 AM 75.2 °F 71.6 °F 89% 29.81 in 9.0 mi SSW 18.4 mph 26.5 mph N/A   Mostly Cloudy
1:53 AM 75.0 °F 72.0 °F 90% 29.79 in 8.0 mi South 17.3 mph 25.3 mph N/A   Mostly Cloudy
2:53 AM 75.9 °F 72.0 °F 87% 29.74 in 10.0 mi SSW 18.4 mph 32.2 mph N/A   Partly Cloudy
3:53 AM 75.9 °F 72.0 °F 87% 29.72 in 10.0 mi South 20.7 mph 29.9 mph N/A   Partly Cloudy
4:53 AM 75.9 °F 72.0 °F 87% 29.74 in 10.0 mi SSW 19.6 mph 33.4 mph N/A   Overcast
5:16 AM 75.2 °F 71.6 °F 89% 29.75 in 9.0 mi SSW 21.9 mph 33.4 mph 0.00 in Rain Light Rain
5:23 AM 75.2 °F 71.6 °F 89% 29.76 in 10.0 mi SSW 21.9 mph 29.9 mph 0.00 in Rain Light Rain
5:33 AM 75.2 °F 71.6 °F 89% 29.77 in 10.0 mi SW 24.2 mph 36.8 mph 0.00 in   Overcast
5:51 AM 66.2 °F 62.6 °F 88% 29.81 in 10.0 mi NW 21.9 mph 39.1 mph 0.00 in Rain Light Rain
5:53 AM 66.9 °F 63.0 °F 87% 29.82 in 10.0 mi WNW 21.9 mph 33.4 mph 0.00 in   Overcast
6:00 AM 66.2 °F 62.6 °F 88% 29.84 in 10.0 mi WNW 23.0 mph 29.9 mph N/A   Overcast
6:09 AM 64.4 °F 60.8 °F 88% 29.84 in 10.0 mi NW 21.9 mph 38.0 mph N/A   Overcast
6:53 AM 63.0 °F 57.0 °F 81% 29.88 in 10.0 mi NW 25.3 mph 35.7 mph N/A   Overcast
7:01 AM 62.6 °F 55.4 °F 77% 29.89 in 10.0 mi NW 24.2 mph 35.7 mph N/A   Overcast
7:53 AM 62.1 °F 53.1 °F 72% 29.95 in 10.0 mi NNW 20.7 mph 35.7 mph N/A   Overcast
8:43 AM 62.6 °F 50.0 °F 63% 30.00 in 10.0 mi NNW 21.9 mph 31.1 mph N/A   Overcast
8:53 AM 62.1 °F 46.9 °F 58% 30.01 in 10.0 mi North 21.9 mph 33.4 mph N/A   Overcast
9:53 AM 64.0 °F 43.0 °F 46% 30.04 in 10.0 mi NNW 23.0 mph 32.2 mph N/A   Clear
10:53 AM 66.0 °F 44.1 °F 45% 30.08 in 10.0 mi NNW 20.7 mph 32.2 mph N/A   Overcast
11:53 AM 66.0 °F 39.0 °F 37% 30.10 in 10.0 mi NNW 20.7 mph 34.5 mph N/A   Scattered Clouds
12:53 PM 68.0 °F 35.1 °F 30% 30.09 in 10.0 mi NNW 21.9 mph 35.7 mph N/A   Clear
1:53 PM 66.9 °F 32.0 °F 27% 30.06 in 10.0 mi NNW 20.7 mph 29.9 mph N/A   Clear
2:53 PM 64.9 °F 32.0 °F 29% 30.07 in 10.0 mi NNW 16.1 mph 27.6 mph N/A   Clear
3:53 PM 64.9 °F 33.1 °F 31% 30.07 in 10.0 mi NNW 15.0 mph 29.9 mph N/A   Clear
4:53 PM 63.0 °F 33.1 °F 33% 30.10 in 10.0 mi NNW 18.4 mph 26.5 mph N/A   Clear
5:53 PM 61.0 °F 33.1 °F 35% 30.13 in 10.0 mi NW 21.9 mph - N/A   Clear
6:53 PM 59.0 °F 33.1 °F 38% 30.16 in 10.0 mi NNW 12.7 mph 20.7 mph N/A   Clear
7:53 PM 57.0 °F 34.0 °F 42% 30.17 in 10.0 mi NNW 4.6 mph - N/A   Clear
8:53 PM 57.0 °F 35.1 °F 44% 30.20 in 10.0 mi Calm Calm - N/A   Clear
9:53 PM 55.9 °F 35.1 °F 45% 30.22 in 10.0 mi North 3.5 mph - N/A   Clear
10:53 PM 55.9 °F 35.1 °F 45% 30.23 in 10.0 mi North 3.5 mph - N/A   Clear
11:53 PM 53.1 °F 35.1 °F 50% 30.23 in 10.0 mi NNW 5.8 mph - N/A   Clear